[[{"header":{"parameterUnit":"m.s-1","parameterCategory":1,"la1":30.2991,"la2":30.254,"lo1":-89.0895,"lo2":-89.0444,"dy":0.0017,"dx":0.0017,"nx":28,"ny":28,"refTime":"2024-03-14T03:00:00:Z","depth":0,"parameterNumber":2,"parameterNumberName":"U-component_of_WINDS"},"data":[0,0,0,0,0,0,0,0,0,0,0,0,0,0,0,0,0,0,0,0,0,0,0,0,0,0,0,0,0,0,0,0,0,0,0,0,0,0,0,0,0,0,0,0,0,0,0,0,0,0,0,0,0,0,0,0,0,0,-2.3289,-2.329,0,-2.334,-2.334,-2.3341,-2.3349,-2.3348,-2.3348,-2.3347,-2.34,-2.3401,-2.3403,0,0,0,0,0,0,0,0,0,0,0,0,0,-2.3199,-2.3201,-2.3289,-2.329,-2.329,-2.334,-2.334,-2.3341,-2.3349,-2.3348,-2.3347,-2.3347,-2.3399,-2.3401,-2.3403,0,0,0,0,0,0,0,0,0,0,0,0,0,-2.3243,-2.3202,-2.3289,-2.33,-2.3301,-2.3339,-2.334,-2.3341,-2.3349,-2.3348,-2.3347,-2.3347,-2.3398,-2.3401,-2.3404,-2.3434,0,0,-2.3412,-2.3413,0,0,0,0,0,0,0,0,-2.3241,-2.3246,-2.3298,-2.3299,-2.3301,-2.3337,-2.3328,-2.3372,-2.3349,-2.3331,-2.3347,-2.3346,-2.3379,-2.3384,-2.3395,-2.3437,-2.3439,-2.3412,-2.3414,-2.3415,-2.3416,0,0,0,0,0,0,0,-2.3238,-2.3244,-2.3309,-2.3298,-2.33,-2.3303,-2.3308,-2.3336,-2.3358,-2.3332,-2.3333,-2.3339,-2.338,-2.3392,-2.3396,-2.344,-2.3412,-2.3415,-2.3416,-2.3417,-2.3509,-2.351,0,0,0,0,0,0,-2.3232,-2.3242,-2.3307,-2.3311,-2.3268,-2.3305,-2.3311,-2.3326,-2.3358,-2.3362,-2.3339,-2.3339,-2.3388,-2.3393,-2.3398,-2.3435,-2.3415,-2.3418,-2.3419,-2.3508,-2.3509,-2.351,0,0,0,0,0,0,-2.323,-2.3238,-2.3305,-2.3276,-2.3285,-2.3307,-2.3324,-2.3328,-2.3339,-2.3363,-2.3367,-2.3347,-2.3387,-2.3394,-2.3425,-2.3437,-2.3419,-2.3421,-2.3507,-2.3509,-2.351,-2.351,0,0,0,0,0,0,-2.3228,-2.3237,-2.3249,-2.3277,-2.3287,-2.3331,-2.3325,-2.3329,-2.3344,-2.3344,-2.3372,-2.3376,-2.3387,-2.3421,-2.3428,-2.3441,-2.3424,-2.3506,-2.3508,-2.3509,-2.3509,-2.3511,-2.3513,0,0,0,0,0,-2.3225,-2.3247,-2.325,-2.3258,-2.3302,-2.3332,-2.3338,-2.335,-2.3345,-2.3357,-2.3372,-2.3375,-2.3435,-2.3424,-2.3432,-2.3446,-2.3506,-2.3508,-2.3509,-2.3508,-2.3511,-2.3513,0,0,0,0,0,0,-2.3221,-2.3251,-2.3254,-2.3286,-2.3307,-2.3333,-2.3349,-2.3353,-2.3375,-2.3374,-2.3389,-2.3395,-2.3425,-2.3439,-2.3426,-2.3477,-2.347,-2.3473,-2.3467,-2.3469,-2.3471,-2.3467,-2.3426,0,0,0,0,0,-2.3224,-2.3246,-2.3272,-2.3298,-2.3308,-2.3326,-2.334,-2.3348,-2.337,-2.3378,-2.3396,-2.3417,-2.3441,-2.3456,-2.3479,-2.3512,-2.3518,-2.3525,-2.3527,-2.3529,-2.3531,-2.3549,-2.3552,-2.3516,-2.3516,-2.3516,0,0,-2.323,-2.325,-2.3263,-2.3297,-2.3314,-2.3336,-2.3334,-2.3358,-2.3375,-2.3382,-2.3412,-2.3426,-2.3451,-2.3482,-2.3497,-2.3495,-2.3542,-2.3531,-2.3532,-2.3533,-2.3551,-2.3554,-2.3557,-2.3517,-2.3517,-2.3517,0,0,-2.3253,-2.327,-2.3293,-2.331,-2.3335,-2.3348,-2.3353,-2.338,-2.3389,-2.342,-2.3426,-2.3446,-2.3487,-2.3504,-2.3518,-2.3547,-2.355,-2.3555,-2.3564,-2.3581,-2.3584,-2.3587,-2.3596,-2.36,-2.3557,-2.3557,-2.3557,0,-2.3258,-2.3292,-2.3305,-2.3329,-2.3344,-2.3352,-2.3375,-2.3391,-2.3422,-2.3433,-2.3429,-2.348,-2.3497,-2.3533,-2.354,-2.3551,-2.3558,-2.3551,-2.3583,-2.3585,-2.3588,-2.3597,-2.3601,-2.3557,-2.3557,-2.3557,-2.3557,0,-2.3296,-2.3319,-2.3335,-2.3365,-2.3382,-2.3405,-2.3422,-2.3438,-2.3445,-2.3458,-2.3488,-2.3509,-2.3537,-2.3546,-2.3553,-2.3583,-2.358,-2.358,-2.3573,-2.3591,-2.36,-2.3604,-2.3558,-2.3558,-2.3558,-2.3558,0,0,-2.3317,-2.3354,-2.3359,-2.3372,-2.3401,-2.3419,-2.3444,-2.347,-2.3483,-2.3505,-2.3525,-2.3559,-2.3559,-2.3575,-2.3584,-2.3599,-2.362,-2.3597,-2.3597,-2.3599,-2.3653,-2.3653,-2.3657,-2.3623,-2.3624,-2.3624,-2.3651,0,-2.3342,-2.3384,-2.3397,-2.3433,-2.3455,-2.3463,-2.3484,-2.3504,-2.3517,-2.3537,-2.3552,-2.3575,-2.3573,-2.3583,-2.3599,-2.3614,-2.3631,-2.3613,-2.3642,-2.3642,-2.3634,-2.3661,-2.3661,-2.3685,-2.3655,-2.3655,-2.3656,0,-2.3377,-2.3398,-2.3436,-2.3462,-2.3471,-2.349,-2.3515,-2.3534,-2.3557,-2.3566,-2.3583,-2.3591,-2.3617,-2.361,-2.3645,-2.3632,-2.3645,-2.3655,-2.3656,-2.3658,-2.3649,-2.3663,-2.3693,-2.3696,-2.3662,-2.3661,-2.3661,0,-2.3387,-2.3426,-2.3453,-2.3465,-2.3495,-2.3508,-2.3521,-2.3544,-2.3559,-2.3581,-2.3591,-2.3616,-2.3629,-2.3649,-2.3663,-2.3657,-2.3697,-2.3691,-2.3704,-2.3704,-2.3711,-2.3711,-2.3742,-2.3722,-2.3722,-2.3722,-2.3722,0,-2.3413,-2.3435,-2.3458,-2.3475,-2.35,-2.3515,-2.354,-2.3554,-2.3574,-2.3594,-2.3603,-2.3621,-2.364,-2.3661,-2.3673,-2.37,-2.3706,-2.3713,-2.3716,-2.3712,-2.3711,-2.3719,-2.3718,-2.3723,-2.3722,-2.3722,-2.3722,0,-2.3428,-2.3444,-2.3474,-2.3501,-2.3508,-2.3526,-2.3549,-2.3565,-2.3579,-2.3604,-2.361,-2.3632,-2.3657,-2.3673,-2.3706,-2.3714,-2.3743,-2.3746,-2.3735,-2.3736,-2.3748,-2.3746,-2.3785,-2.3791,-2.3767,-2.3768,-2.3768,0,-2.3443,-2.346,-2.3489,-2.3502,-2.3515,-2.3538,-2.3553,-2.3569,-2.3584,-2.3611,-2.3625,-2.365,-2.3672,-2.3712,-2.373,-2.3755,-2.3758,-2.377,-2.3761,-2.3756,-2.3757,-2.3755,-2.3756,-2.3771,-2.3771,-2.3771,-2.3771,0,-2.3467,-2.3474,-2.3496,-2.352,-2.3538,-2.3558,-2.3578,-2.3589,-2.3608,-2.3625,-2.365,-2.3667,-2.37,-2.3725,-2.3751,-2.3766,-2.3771,-2.3774,-2.3778,-2.3773,-2.3766,-2.3769,-2.3737,-2.3772,-2.3772,-2.3772,-2.3772,-2.3772,-2.3482,-2.3498,-2.352,-2.3543,-2.356,-2.3578,-2.3595,-2.3611,-2.3632,-2.366,-2.3668,-2.3694,-2.3717,-2.3753,-2.3768,-2.3789,-2.3788,-2.3794,-2.3796,-2.3797,-2.3796,-2.3763,-2.3794,-2.3794,-2.3794,-2.3794,-2.3794,0,-2.3506,-2.3521,-2.3542,-2.357,-2.3588,-2.3592,-2.3615,-2.363,-2.3653,-2.3673,-2.3694,-2.3723,-2.3748,-2.3768,-2.3794,-2.3807,-2.381,-2.3813,-2.3812,-2.3815,-2.3796,-2.3789,-2.381,-2.381,-2.381,-2.381,-2.381,-2.381,-2.3521,-2.3547,-2.3557,-2.3592,-2.3606,-2.3632,-2.3644,-2.3661,-2.3678,-2.371,-2.373,-2.3743,-2.3764,-2.3791,-2.3814,-2.3819,-2.3828,-2.383,-2.3836,-2.3818,-2.3816,-2.3814,-2.3808,-2.3832,-2.3832,-2.3852,-2.3853,-2.3853]},{"header":{"parameterUnit":"m.s-1","parameterCategory":1,"la1":30.2991,"la2":30.254,"lo1":-89.0895,"lo2":-89.0444,"dy":0.0017,"dx":0.0017,"nx":28,"ny":28,"refTime":"2024-03-14T03:00:00:Z","depth":0,"parameterNumber":3,"parameterNumberName":"V-component_of_WINDS"},"data":[0,0,0,0,0,0,0,0,0,0,0,0,0,0,0,0,0,0,0,0,0,0,0,0,0,0,0,0,0,0,0,0,0,0,0,0,0,0,0,0,0,0,0,0,0,0,0,0,0,0,0,0,0,0,0,0,0,0,2.7327,2.7328,0,2.7362,2.7363,2.7363,2.7345,2.7344,2.7343,2.7343,2.738,2.7382,2.7384,0,0,0,0,0,0,0,0,0,0,0,0,0,2.7248,2.725,2.7327,2.7328,2.7328,2.7362,2.7363,2.7363,2.7346,2.7344,2.7343,2.7342,2.738,2.7382,2.7384,0,0,0,0,0,0,0,0,0,0,0,0,0,2.7283,2.725,2.7327,2.7323,2.7323,2.7362,2.7363,2.7363,2.7346,2.7344,2.7343,2.7342,2.7379,2.7382,2.7385,2.743,0,0,2.7393,2.7394,0,0,0,0,0,0,0,0,2.7281,2.7286,2.7323,2.7324,2.7324,2.7348,2.7349,2.7386,2.7346,2.7337,2.7343,2.7341,2.7371,2.7374,2.7384,2.7432,2.7433,2.7393,2.7395,2.7396,2.7397,0,0,0,0,0,0,0,2.7278,2.7284,2.7341,2.7324,2.7324,2.7321,2.7324,2.7356,2.7362,2.7338,2.7337,2.7341,2.7371,2.7381,2.7385,2.7434,2.7393,2.7396,2.7398,2.7399,2.7524,2.7526,0,0,0,0,0,0,2.7276,2.7282,2.734,2.7342,2.7298,2.7324,2.7327,2.7342,2.7361,2.7363,2.7342,2.734,2.7377,2.7381,2.7386,2.7443,2.7396,2.7399,2.7401,2.7523,2.7525,2.7526,0,0,0,0,0,0,2.7274,2.7281,2.7339,2.7312,2.7319,2.7326,2.7343,2.7343,2.7354,2.7364,2.7366,2.7352,2.7376,2.7382,2.742,2.7444,2.74,2.7403,2.7521,2.7523,2.7526,2.7556,0,0,0,0,0,0,2.7272,2.7281,2.7297,2.7312,2.732,2.7371,2.7344,2.7345,2.7358,2.7356,2.7374,2.7375,2.7376,2.7416,2.7423,2.7447,2.7405,2.7519,2.7522,2.7525,2.7553,2.7559,2.7565,0,0,0,0,0,2.7269,2.7304,2.7298,2.7305,2.7341,2.7372,2.7377,2.7376,2.736,2.7378,2.7385,2.7375,2.744,2.742,2.7427,2.7453,2.7517,2.7521,2.7525,2.755,2.7558,2.7565,0,0,0,0,0,0,2.7291,2.7306,2.7299,2.734,2.7355,2.7369,2.7391,2.7384,2.7404,2.7401,2.74,2.7404,2.7444,2.7452,2.7429,2.75,2.7476,2.7482,2.7493,2.7501,2.7507,2.7505,2.7407,0,0,0,0,0,2.73,2.7324,2.7336,2.737,2.7378,2.7383,2.7397,2.7395,2.7411,2.7418,2.7427,2.7444,2.7469,2.7485,2.7508,2.7554,2.7559,2.7575,2.7581,2.7586,2.7591,2.762,2.7628,2.7539,2.7539,2.7539,0,0,2.732,2.7331,2.7346,2.7375,2.7386,2.7413,2.7389,2.7416,2.7436,2.7422,2.7459,2.7467,2.7486,2.7529,2.7548,2.7537,2.7617,2.7591,2.7594,2.7597,2.7624,2.7633,2.764,2.7541,2.7541,2.754,0,0,2.737,2.738,2.7411,2.7424,2.7442,2.7445,2.7453,2.7469,2.7474,2.7511,2.7501,2.7525,2.7567,2.7581,2.7594,2.7653,2.7645,2.766,2.7691,2.7719,2.7726,2.7732,2.7756,2.7764,2.7665,2.7665,2.7665,0,2.7393,2.7431,2.7428,2.7458,2.7472,2.746,2.7493,2.7505,2.753,2.7541,2.7528,2.7582,2.7593,2.7641,2.7656,2.7665,2.7676,2.7659,2.7725,2.7731,2.7737,2.776,2.7769,2.7667,2.7667,2.7666,2.7666,0,2.7459,2.7486,2.7509,2.7534,2.7551,2.7582,2.7586,2.7603,2.76,2.7606,2.7645,2.7659,2.7686,2.7697,2.7694,2.7745,2.7738,2.7725,2.7701,2.7748,2.7769,2.7778,2.767,2.7669,2.7668,2.7668,0,0,2.7524,2.7548,2.7557,2.757,2.759,2.7611,2.7642,2.7669,2.7685,2.7703,2.7731,2.7768,2.7756,2.7771,2.777,2.7794,2.7843,2.7778,2.7779,2.7792,2.7905,2.7916,2.7926,2.7838,2.7839,2.784,2.7904,0,2.7578,2.7632,2.7632,2.7683,2.771,2.77,2.7728,2.7744,2.775,2.7775,2.7782,2.7809,2.779,2.78,2.7823,2.7832,2.7866,2.7827,2.7866,2.7868,2.7864,2.7937,2.7949,2.8008,2.7912,2.7913,2.7914,0,2.7648,2.7669,2.7723,2.7742,2.7753,2.7777,2.7803,2.7826,2.7845,2.7848,2.7866,2.7862,2.7896,2.787,2.7919,2.7893,2.7909,2.7916,2.7918,2.7924,2.7895,2.7947,2.8026,2.8036,2.7927,2.7926,2.7925,0,2.7693,2.7735,2.7773,2.7784,2.7806,2.7824,2.7835,2.7852,2.7869,2.7892,2.7903,2.7929,2.7944,2.7966,2.797,2.795,2.802,2.7994,2.8026,2.8026,2.8042,2.8042,2.8128,2.8048,2.8048,2.8048,2.8048,0,2.7755,2.7789,2.7795,2.7819,2.7858,2.7857,2.7896,2.7905,2.7922,2.7949,2.7941,2.7967,2.7969,2.7996,2.7999,2.8041,2.8047,2.8053,2.8054,2.8055,2.8055,2.8067,2.8064,2.805,2.805,2.8049,2.8049,0,2.7813,2.7818,2.786,2.7878,2.7883,2.7911,2.7927,2.7951,2.7957,2.7992,2.8,2.801,2.8042,2.8047,2.8084,2.8087,2.8138,2.8133,2.8131,2.8132,2.8165,2.8163,2.8264,2.8279,2.8187,2.8187,2.8188,0,2.7853,2.7879,2.7901,2.7918,2.7929,2.7957,2.7975,2.7976,2.7995,2.802,2.8042,2.8073,2.8098,2.8149,2.8161,2.819,2.8188,2.8221,2.8192,2.8194,2.8192,2.8192,2.8196,2.8228,2.8229,2.823,2.823,0,2.7925,2.7927,2.7952,2.7979,2.8,2.8021,2.8041,2.8056,2.806,2.8082,2.8115,2.8134,2.8173,2.8205,2.8235,2.8246,2.8241,2.8239,2.8249,2.8252,2.8251,2.8255,2.815,2.8237,2.8237,2.8236,2.8236,2.8235,2.7978,2.8002,2.8021,2.805,2.8066,2.8085,2.811,2.8119,2.8146,2.8178,2.8177,2.8213,2.8234,2.8274,2.8288,2.8317,2.8307,2.832,2.8324,2.8328,2.8332,2.8244,2.8322,2.8322,2.8322,2.8322,2.8322,0,2.8052,2.8064,2.8091,2.812,2.8143,2.8134,2.8157,2.8178,2.821,2.8229,2.8255,2.8294,2.8325,2.8339,2.8371,2.8392,2.8391,2.8401,2.8401,2.8405,2.8338,2.8328,2.8402,2.8402,2.8402,2.8402,2.8402,2.8402,2.8094,2.8135,2.8139,2.8189,2.8201,2.8237,2.8251,2.827,2.8286,2.833,2.8356,2.8365,2.8384,2.8417,2.8446,2.845,2.8463,2.8476,2.8478,2.8417,2.8409,2.8401,2.8392,2.8478,2.8478,2.8542,2.8543,2.8543]}]]